Location: Anuling
(14.1239°N, 120.8922°E)
Time: 06:22:21
(UTC+00:00)

Nadezhda 3 Rocket - Pass Details

Date: 14 January 2026
Orbit: 956 x 998 km, 82.9° (Epoch: 7 February)

Event Time Altitude Azimuth Distance (km) Brightness Sun altitude
Rises 10:11:09 0° 176° (S) 3,640 7.2 -6.4°
Reaches altitude 10° 10:13:41 10° 173° (S) 2,690 6.5 -6.9°
Maximum altitude 10:19:46 66° 92° (E) 1,041 4.0 -8.3°
Drops below altitude 10° 10:25:49 10° 12° (NNE) 2,680 6.0 -9.7°
Sets 10:28:19 0° 9° (N) 3,626 6.7 -10.3°
